Flag for Germany Weather past 2 weeks in Mörfelden-Walldorf, Hesse, Germany

Now
73 °F

Passing clouds.


Feels Like: 77 °F
Forecast: 64 / 96 °F
Wind: 6 mph from Southeast

Location: Frankfurt-M-Flughafen Airport

Current Time: Aug 5, 2015 at 12:38:57 PM

Latest Report: Aug 5, 2015 at 12:20 PM


Visibility: N/A

Pressure: 30.09 "Hg

Humidity: 47%

Dew point: 52 °F

Location of Mörfelden-WalldorfLocation

Historic Weather in Mörfelden-Walldorf — Graph

°F

Mörfelden-Walldorf temperature yesterday

Maximum temperature yesterday: 82 °F (at 10:20 AM)
Minimum temperature yesterday: 59 °F (at 10:50 PM)
Average temperature yesterday: 70 °F

Past Weeks' High & Low Weather Summary

 TemperatureHumidityPressure
High91 °F (Jul 22, 2:50 PM)100% (Aug 5, 2:20 AM)30.12 "Hg (Aug 5, 2:20 AM)
Low45 °F (Jul 30, 4:50 AM)19% (Aug 2, 4:20 PM)29.62 "Hg (Jul 24, 11:20 PM)
Average69 °F56%29.92 "Hg
* Reported Jul 21 11:20 AM — Aug 5 11:20 AM, Mörfelden-Walldorf, Weather by CustomWeather, © 2015

Note: Actual official high and low records may vary slightly from our data, if they occured in-between our weather recording intervals... More about our weather records

Advertising

Mörfelden-Walldorf weather history for previous 24 hours

 ConditionsComfort  
Time TempWeatherWind HumidityBarometerVisibility
11:20 AM
Wed, Aug 5
72 °FPassing clouds.7 mph53%30.09 "HgN/A
10:50 AM70 °FPassing clouds.8 mph57%30.12 "HgN/A
10:20 AM68 °FPassing clouds.7 mph64%30.12 "HgN/A
9:50 AM66 °FPassing clouds.7 mph73%30.12 "HgN/A
9:20 AM64 °FPassing clouds.7 mph78%30.12 "HgN/A
8:50 AM63 °FPassing clouds.5 mph83%30.12 "HgN/A
8:20 AM61 °FPassing clouds.7 mph88%30.12 "HgN/A
7:50 AM59 °FPassing clouds.7 mph88%30.12 "HgN/A
7:20 AM59 °FPassing clouds.6 mph88%30.12 "HgN/A
6:20 AM55 °FLight fog.6 mph94%30.12 "HgN/A
5:20 AM55 °FFog.3 mph94%30.12 "HgN/A
4:50 AM55 °FFog.5 mph94%30.12 "HgN/A
4:20 AM54 °FFog.3 mph100%30.12 "HgN/A
3:50 AM54 °FFog.3 mph94%30.12 "HgN/A
3:20 AM54 °FFog.2 mph94%30.12 "HgN/A
2:50 AM54 °FFog.2 mph94%30.12 "HgN/A
2:20 AM54 °FFog.1 mph100%30.09 "HgN/A
1:50 AM55 °FFog.3 mph94%30.09 "HgN/A
1:20 AM55 °FClear.1 mph94%30.12 "Hg10 mi
12:20 AM57 °FClear.2 mph94%30.12 "Hg10 mi
11:50 PM
Tue, Aug 4
59 °FClear.2 mph88%30.09 "Hg10 mi
11:20 PM59 °FClear.5 mph88%30.09 "Hg10 mi
10:50 PM59 °FClear.6 mph88%30.09 "Hg10 mi
10:20 PM61 °FPassing clouds.7 mph83%30.09 "HgN/A
9:50 PM64 °FSunny.9 mph73%30.07 "Hg10 mi
9:20 PM64 °FPassing clouds.8 mph78%30.07 "HgN/A
8:50 PM64 °FPassing clouds.9 mph83%30.07 "HgN/A
8:20 PM66 °FPartly sunny.12 mph78%30.04 "HgN/A
7:50 PM66 °FScattered clouds.12 mph83%30.04 "HgN/A
7:20 PM66 °FScattered showers. Broken clouds.15 mph83%30.04 "HgN/A
6:50 PM70 °FBroken clouds.10 mph88%30.01 "HgN/A
6:20 PM70 °FSprinkles. Broken clouds.8 mph88%29.98 "Hg4 mi
5:50 PM70 °FSprinkles. Broken clouds.7 mph88%29.98 "HgN/A
5:20 PM72 °FBroken clouds.7 mph83%29.98 "HgN/A
4:50 PM70 °FBroken clouds.6 mph88%29.98 "HgN/A
4:20 PM70 °FBroken clouds.7 mph88%30.01 "HgN/A
3:50 PM68 °FBroken clouds.8 mph94%30.01 "HgN/A
3:20 PM68 °FBroken clouds.7 mph94%30.01 "HgN/A
2:50 PM66 °FLight rain. Broken clouds.12 mph94%30.01 "Hg6 mi
2:20 PM66 °FLight rain. Partly sunny.10 mph94%29.98 "Hg6 mi
1:50 PM72 °FLight rain. Clear.18 mph69%29.98 "HgN/A
1:20 PM77 °FSunny.18 mph51%29.95 "Hg10 mi
12:50 PM81 °FSunny.21 mph42%29.95 "Hg10 mi
12:20 PM82 °FSunny.20 mph40%29.92 "Hg10 mi
Weather by CustomWeather, © 2015

See weather overviewHow to use our weather pages